User: anonymous   Login
Location: Catacaguana
(10.4120°N, 66.7591°W)
Time: 09:03:53
(UTC+00:00)
Language:

Cosmos 1503 Rocket - Orbit

View from above orbital plane
View from above orbital plane
View from above satellite
View from above satellite

Ground track
Ground track

The orbit data is extracted from the following two-line orbital elements,

1 14402U 83103B   22230.67757045  .00000154  00000-0  61525-4 0  9999
2 14402  74.0460  28.7784 0026118 126.2474 234.1098 14.36114763 33081
Epoch (UTC): 18 August 2022 16:15:42
Eccentricity: 0.0026118
inclination: 74.0460°
perigee height: 752 km
apogee height: 790 km
right ascension of ascending node: 28.7784°
argument of perigee: 126.2474°
revolutions per day: 14.36114763
mean anomaly at epoch: 234.1098°
orbit number at epoch: 3308

The dashed part of the orbit path shows where the satellite is in the earth's shadow,  

DLR